contact:dominique.lefevre@mio.osupytheas.fr, maurice.libes@osupytheas.fr, didier.mallarino@osupytheas.fr
Project:EMSO http://www.emso-fr.org/EMSO-France
Depth: 2436.0 m
Title:EMSO Ligure Ouest : Data MII capteur CSTAR
DateTime,Latitude,Longitude,Instrument_Serial,Reference_Counts,Signal_Counts,Corrected_Signal_raw_counts,Calculated_Beam_c_inverse_meters,Internal_thermistor_counts
DateTime,Latitude,Longitude,Instrument_Serial,Reference_Counts,Signal_Counts,Corrected_Signal_raw_counts,Calculated_Beam_c_inverse_meters,Internal_thermistor_counts
2019-07-14T00:00:01,42.805,6.029,CST-1368DR,8669,12125,15470,0.038,551
2019-07-14T00:03:03,42.805,6.029,CST-1368DR,8669,12125,15470,0.038,551
2019-07-14T00:06:05,42.805,6.029,CST-1368DR,8669,12121,15465,0.039,551
2019-07-14T00:09:07,42.805,6.029,CST-1368DR,8668,12122,15468,0.038,551
2019-07-14T00:12:08,42.805,6.029,CST-1368DR,8669,12125,15470,0.038,551
2019-07-14T00:15:10,42.805,6.029,CST-1368DR,8669,12122,15466,0.039,551
2019-07-14T00:18:12,42.805,6.029,CST-1368DR,8669,12125,15469,0.038,550
2019-07-14T00:21:14,42.805,6.029,CST-1368DR,8668,12124,15470,0.038,551
2019-07-14T00:24:15,42.805,6.029,CST-1368DR,8668,12126,15472,0.037,551
2019-07-14T00:27:17,42.805,6.029,CST-1368DR,8668,12125,15472,0.037,551
2019-07-14T00:30:19,42.805,6.029,CST-1368DR,8668,12124,15470,0.038,551
2019-07-14T00:33:21,42.805,6.029,CST-1368DR,8668,12125,15471,0.037,551
2019-07-14T00:36:23,42.805,6.029,CST-1368DR,8668,12124,15470,0.038,551
2019-07-14T00:39:24,42.805,6.029,CST-1368DR,8668,12125,15471,0.037,551
2019-07-14T00:42:26,42.805,6.029,CST-1368DR,8668,12125,15472,0.037,551
2019-07-14T00:45:28,42.805,6.029,CST-1368DR,8668,12125,15471,0.037,551
2019-07-14T00:48:30,42.805,6.029,CST-1368DR,8668,12123,15469,0.038,551
2019-07-14T00:51:32,42.805,6.029,CST-1368DR,8668,12124,15470,0.038,550
2019-07-14T00:54:33,42.805,6.029,CST-1368DR,8668,12123,15469,0.038,551
2019-07-14T00:57:35,42.805,6.029,CST-1368DR,8668,12124,15471,0.037,551
2019-07-14T01:00:37,42.805,6.029,CST-1368DR,8668,12122,15467,0.038,551
2019-07-14T01:03:39,42.805,6.029,CST-1368DR,8668,12125,15471,0.037,551
2019-07-14T01:06:41,42.805,6.029,CST-1368DR,8668,12123,15469,0.038,551
2019-07-14T01:09:42,42.805,6.029,CST-1368DR,8668,12118,15463,0.039,551
2019-07-14T01:12:44,42.805,6.029,CST-1368DR,8668,12119,15463,0.039,551
2019-07-14T01:15:46,42.805,6.029,CST-1368DR,8668,12118,15463,0.039,551
2019-07-14T01:18:48,42.805,6.029,CST-1368DR,8668,12123,15469,0.038,551
2019-07-14T01:21:50,42.805,6.029,CST-1368DR,8667,12123,15471,0.037,551
2019-07-14T01:24:51,42.805,6.029,CST-1368DR,8667,12124,15472,0.037,551
2019-07-14T01:27:53,42.805,6.029,CST-1368DR,8668,12121,15466,0.039,551
2019-07-14T01:30:55,42.805,6.029,CST-1368DR,8668,12124,15470,0.038,551
2019-07-14T01:33:57,42.805,6.029,CST-1368DR,8668,12125,15471,0.037,551
2019-07-14T01:36:58,42.805,6.029,CST-1368DR,8667,12124,15472,0.037,551
2019-07-14T01:40:00,42.805,6.029,CST-1368DR,8667,12124,15471,0.037,550
2019-07-14T01:43:02,42.805,6.029,CST-1368DR,8667,12122,15469,0.038,551
2019-07-14T01:46:04,42.805,6.029,CST-1368DR,8667,12123,15471,0.037,550
2019-07-14T01:49:06,42.805,6.029,CST-1368DR,8667,12124,15472,0.037,551
2019-07-14T01:52:07,42.805,6.029,CST-1368DR,8667,12124,15472,0.037,551
2019-07-14T01:55:09,42.805,6.029,CST-1368DR,8667,12124,15471,0.037,551
2019-07-14T01:58:11,42.805,6.029,CST-1368DR,8667,12124,15472,0.037,551
2019-07-14T02:01:13,42.805,6.029,CST-1368DR,8667,12122,15469,0.038,551
2019-07-14T02:04:15,42.805,6.029,CST-1368DR,8667,12123,15470,0.038,551
2019-07-14T02:07:17,42.805,6.029,CST-1368DR,8667,12123,15470,0.038,551
2019-07-14T02:10:18,42.805,6.029,CST-1368DR,8667,12124,15472,0.037,551
2019-07-14T02:13:20,42.805,6.029,CST-1368DR,8667,12124,15472,0.037,551
2019-07-14T02:16:22,42.805,6.029,CST-1368DR,8667,12117,15462,0.040,551
2019-07-14T02:19:24,42.805,6.029,CST-1368DR,8667,12123,15471,0.037,551
2019-07-14T02:22:25,42.805,6.029,CST-1368DR,8667,12123,15470,0.038,551
2019-07-14T02:25:27,42.805,6.029,CST-1368DR,8667,12123,15470,0.038,551
2019-07-14T02:28:29,42.805,6.029,CST-1368DR,8667,12123,15471,0.037,551
2019-07-14T02:31:30,42.805,6.029,CST-1368DR,8667,12124,15472,0.037,551
2019-07-14T02:34:32,42.805,6.029,CST-1368DR,8667,12124,15472,0.037,551
2019-07-14T02:37:33,42.805,6.029,CST-1368DR,8667,12122,15469,0.038,551
2019-07-14T02:40:35,42.805,6.029,CST-1368DR,8667,12123,15471,0.037,551
2019-07-14T02:43:37,42.805,6.029,CST-1368DR,8667,12124,15472,0.037,550
2019-07-14T02:46:39,42.805,6.029,CST-1368DR,8667,12121,15468,0.038,551
2019-07-14T02:49:41,42.805,6.029,CST-1368DR,8667,12123,15471,0.037,551
2019-07-14T02:52:42,42.805,6.029,CST-1368DR,8667,12123,15470,0.038,551
2019-07-14T02:55:44,42.805,6.029,CST-1368DR,8667,12123,15471,0.037,551
2019-07-14T02:58:46,42.805,6.029,CST-1368DR,8667,12123,15471,0.037,551
2019-07-14T03:01:47,42.805,6.029,CST-1368DR,8667,12123,15471,0.037,550
2019-07-14T03:04:49,42.805,6.029,CST-1368DR,8667,12123,15471,0.037,551
2019-07-14T03:07:51,42.805,6.029,CST-1368DR,8667,12122,15469,0.038,551
2019-07-14T03:10:52,42.805,6.029,CST-1368DR,8667,12123,15470,0.038,551
2019-07-14T03:13:54,42.805,6.029,CST-1368DR,8667,12122,15469,0.038,551
2019-07-14T03:16:56,42.805,6.029,CST-1368DR,8667,12123,15470,0.038,550
2019-07-14T03:19:57,42.805,6.029,CST-1368DR,8667,12123,15470,0.038,551
2019-07-14T03:22:59,42.805,6.029,CST-1368DR,8667,12122,15469,0.038,551
2019-07-14T03:26:00,42.805,6.029,CST-1368DR,8667,12121,15468,0.038,551
2019-07-14T03:29:02,42.805,6.029,CST-1368DR,8667,12123,15471,0.037,551
2019-07-14T03:32:04,42.805,6.029,CST-1368DR,8667,12120,15467,0.038,551
2019-07-14T03:35:05,42.805,6.029,CST-1368DR,8667,12121,15467,0.038,551
2019-07-14T03:38:07,42.805,6.029,CST-1368DR,8666,12122,15471,0.037,551
2019-07-14T03:41:09,42.805,6.029,CST-1368DR,8666,12122,15471,0.037,551
2019-07-14T03:44:10,42.805,6.029,CST-1368DR,8666,12123,15472,0.037,551
2019-07-14T03:47:12,42.805,6.029,CST-1368DR,8666,12123,15472,0.037,551
2019-07-14T03:50:14,42.805,6.029,CST-1368DR,8666,12120,15468,0.038,551
2019-07-14T03:53:15,42.805,6.029,CST-1368DR,8666,12120,15468,0.038,550
2019-07-14T03:56:17,42.805,6.029,CST-1368DR,8666,12121,15469,0.038,551
2019-07-14T03:59:18,42.805,6.029,CST-1368DR,8666,12121,15469,0.038,551
2019-07-14T04:02:20,42.805,6.029,CST-1368DR,8666,12120,15469,0.038,551
2019-07-14T04:05:22,42.805,6.029,CST-1368DR,8666,12117,15464,0.039,551
2019-07-14T04:08:23,42.805,6.029,CST-1368DR,8666,12121,15470,0.038,551
2019-07-14T04:11:25,42.805,6.029,CST-1368DR,8666,12123,15472,0.037,551
2019-07-14T04:14:27,42.805,6.029,CST-1368DR,8666,12121,15469,0.038,551
2019-07-14T04:17:29,42.805,6.029,CST-1368DR,8666,12124,15473,0.037,551
2019-07-14T04:20:30,42.805,6.029,CST-1368DR,8666,12123,15472,0.037,551
2019-07-14T04:23:32,42.805,6.029,CST-1368DR,8666,12122,15471,0.037,550
2019-07-14T04:26:34,42.805,6.029,CST-1368DR,8666,12121,15470,0.038,551
2019-07-14T04:29:36,42.805,6.029,CST-1368DR,8666,12117,15464,0.039,551
2019-07-14T04:32:37,42.805,6.029,CST-1368DR,8666,12122,15471,0.037,551
2019-07-14T04:35:39,42.805,6.029,CST-1368DR,8666,12121,15470,0.038,551
2019-07-14T04:38:41,42.805,6.029,CST-1368DR,8666,12120,15469,0.038,551
2019-07-14T04:41:43,42.805,6.029,CST-1368DR,8666,12121,15470,0.038,551
2019-07-14T04:44:45,42.805,6.029,CST-1368DR,8666,12119,15467,0.038,551
2019-07-14T04:47:47,42.805,6.029,CST-1368DR,8666,12122,15471,0.037,551
2019-07-14T04:50:48,42.805,6.029,CST-1368DR,8666,12122,15471,0.037,551
2019-07-14T04:53:50,42.805,6.029,CST-1368DR,8666,12120,15468,0.038,551
2019-07-14T04:56:52,42.805,6.029,CST-1368DR,8666,12121,15469,0.038,551
2019-07-14T04:59:54,42.805,6.029,CST-1368DR,8666,12121,15470,0.038,551
2019-07-14T05:02:55,42.805,6.029,CST-1368DR,8666,12122,15470,0.038,551
2019-07-14T05:05:57,42.805,6.029,CST-1368DR,8665,12122,15472,0.037,551
2019-07-14T05:08:59,42.805,6.029,CST-1368DR,8665,12121,15472,0.037,551
2019-07-14T05:12:01,42.805,6.029,CST-1368DR,8665,12121,15471,0.037,551
2019-07-14T05:15:03,42.805,6.029,CST-1368DR,8665,12121,15471,0.037,551
2019-07-14T05:18:04,42.805,6.029,CST-1368DR,8665,12121,15471,0.037,551
2019-07-14T05:21:06,42.805,6.029,CST-1368DR,8665,12120,15470,0.038,551
2019-07-14T05:24:08,42.805,6.029,CST-1368DR,8665,12120,15470,0.038,551
2019-07-14T05:27:10,42.805,6.029,CST-1368DR,8665,12121,15471,0.037,551
2019-07-14T05:30:12,42.805,6.029,CST-1368DR,8665,12120,15469,0.038,551
2019-07-14T05:33:13,42.805,6.029,CST-1368DR,8665,12118,15467,0.038,551
2019-07-14T05:36:15,42.805,6.029,CST-1368DR,8665,12121,15471,0.037,551
2019-07-14T05:39:17,42.805,6.029,CST-1368DR,8665,12121,15472,0.037,551
2019-07-14T05:42:19,42.805,6.029,CST-1368DR,8665,12119,15469,0.038,551
2019-07-14T05:45:20,42.805,6.029,CST-1368DR,8665,12121,15471,0.037,551
2019-07-14T05:48:22,42.805,6.029,CST-1368DR,8665,12120,15470,0.038,550
2019-07-14T05:51:24,42.805,6.029,CST-1368DR,8665,12121,15471,0.037,551
2019-07-14T05:54:26,42.805,6.029,CST-1368DR,8665,12119,15468,0.038,551
2019-07-14T05:57:28,42.805,6.029,CST-1368DR,8665,12115,15463,0.039,551
2019-07-14T06:00:29,42.805,6.029,CST-1368DR,8665,12114,15462,0.040,551
2019-07-14T06:03:31,42.805,6.029,CST-1368DR,8665,12120,15470,0.038,551
2019-07-14T06:06:33,42.805,6.029,CST-1368DR,8665,12116,15465,0.039,551
2019-07-14T06:09:35,42.805,6.029,CST-1368DR,8665,12120,15470,0.038,551
2019-07-14T06:12:37,42.805,6.029,CST-1368DR,8665,12120,15470,0.038,551
2019-07-14T06:15:38,42.805,6.029,CST-1368DR,8665,12116,15465,0.039,550
2019-07-14T06:18:40,42.805,6.029,CST-1368DR,8665,12118,15467,0.038,551
2019-07-14T06:21:42,42.805,6.029,CST-1368DR,8665,12116,15465,0.039,551
2019-07-14T06:24:44,42.805,6.029,CST-1368DR,8665,12116,15465,0.039,551
2019-07-14T06:27:45,42.805,6.029,CST-1368DR,8665,12119,15469,0.038,551
2019-07-14T06:30:47,42.805,6.029,CST-1368DR,8665,12120,15469,0.038,551
2019-07-14T06:33:49,42.805,6.029,CST-1368DR,8665,12120,15469,0.038,551
2019-07-14T06:36:51,42.805,6.029,CST-1368DR,8665,12120,15469,0.038,551
2019-07-14T06:39:53,42.805,6.029,CST-1368DR,8665,12115,15463,0.039,551
2019-07-14T06:42:54,42.805,6.029,CST-1368DR,8665,12119,15469,0.038,551
2019-07-14T06:45:56,42.805,6.029,CST-1368DR,8665,12117,15467,0.038,551
2019-07-14T06:48:58,42.805,6.029,CST-1368DR,8665,12117,15466,0.039,551
2019-07-14T06:52:00,42.805,6.029,CST-1368DR,8665,12120,15470,0.038,551
2019-07-14T06:55:02,42.805,6.029,CST-1368DR,8665,12120,15469,0.038,550
2019-07-14T06:58:03,42.805,6.029,CST-1368DR,8664,12118,15469,0.038,551
2019-07-14T07:01:05,42.805,6.029,CST-1368DR,8664,12117,15468,0.038,551
2019-07-14T07:04:07,42.805,6.029,CST-1368DR,8665,12120,15469,0.038,551
2019-07-14T07:07:09,42.805,6.029,CST-1368DR,8664,12120,15471,0.037,551
2019-07-14T07:10:10,42.805,6.029,CST-1368DR,8665,12119,15468,0.038,551
2019-07-14T07:13:12,42.805,6.029,CST-1368DR,8664,12120,15471,0.037,551
2019-07-14T07:16:14,42.805,6.029,CST-1368DR,8664,12117,15468,0.038,551
2019-07-14T07:19:16,42.805,6.029,CST-1368DR,8664,12120,15472,0.037,551
2019-07-14T07:22:18,42.805,6.029,CST-1368DR,8664,12119,15471,0.037,551
2019-07-14T07:25:20,42.805,6.029,CST-1368DR,8664,12120,15471,0.037,551
2019-07-14T07:28:22,42.805,6.029,CST-1368DR,8664,12119,15470,0.038,551
2019-07-14T07:31:23,42.805,6.029,CST-1368DR,8664,12120,15472,0.037,551
2019-07-14T07:34:25,42.805,6.029,CST-1368DR,8664,12119,15470,0.038,551
2019-07-14T07:37:27,42.805,6.029,CST-1368DR,8664,12103,15450,0.043,551
2019-07-14T07:40:29,42.805,6.029,CST-1368DR,8664,12118,15469,0.038,551
2019-07-14T07:43:31,42.805,6.029,CST-1368DR,8664,12119,15470,0.038,551
2019-07-14T07:46:33,42.805,6.029,CST-1368DR,8664,12120,15472,0.037,551
2019-07-14T07:49:34,42.805,6.029,CST-1368DR,8664,12119,15470,0.038,551
2019-07-14T07:52:36,42.805,6.029,CST-1368DR,8664,12118,15469,0.038,550
2019-07-14T07:55:38,42.805,6.029,CST-1368DR,8664,12117,15468,0.038,551
2019-07-14T07:58:40,42.805,6.029,CST-1368DR,8664,12120,15471,0.037,551
2019-07-14T08:01:41,42.805,6.029,CST-1368DR,8664,12117,15468,0.038,551
2019-07-14T08:04:43,42.805,6.029,CST-1368DR,8664,12119,15471,0.037,551
2019-07-14T08:07:45,42.805,6.029,CST-1368DR,8664,12120,15471,0.037,551
2019-07-14T08:10:47,42.805,6.029,CST-1368DR,8664,12120,15471,0.037,551
2019-07-14T08:13:49,42.805,6.029,CST-1368DR,8664,12117,15468,0.038,551
2019-07-14T08:16:51,42.805,6.029,CST-1368DR,8664,12118,15469,0.038,551
2019-07-14T08:19:52,42.805,6.029,CST-1368DR,8664,12117,15468,0.038,551
2019-07-14T08:22:54,42.805,6.029,CST-1368DR,8664,12116,15467,0.038,551
2019-07-14T08:25:56,42.805,6.029,CST-1368DR,8664,12117,15467,0.038,551
2019-07-14T08:28:58,42.805,6.029,CST-1368DR,8664,12118,15470,0.038,551
2019-07-14T08:32:00,42.805,6.029,CST-1368DR,8664,12116,15467,0.038,551
2019-07-14T08:35:01,42.805,6.029,CST-1368DR,8664,12118,15469,0.038,551
2019-07-14T08:38:03,42.805,6.029,CST-1368DR,8664,12117,15468,0.038,551
2019-07-14T08:41:05,42.805,6.029,CST-1368DR,8664,12116,15466,0.039,551
2019-07-14T08:44:07,42.805,6.029,CST-1368DR,8664,12118,15469,0.038,551
2019-07-14T08:47:09,42.805,6.029,CST-1368DR,8664,12118,15469,0.038,551
2019-07-14T08:50:10,42.805,6.029,CST-1368DR,8664,12117,15468,0.038,551
2019-07-14T08:53:12,42.805,6.029,CST-1368DR,8663,12119,15471,0.037,550
2019-07-14T08:56:14,42.805,6.029,CST-1368DR,8664,12117,15468,0.038,551
2019-07-14T08:59:16,42.805,6.029,CST-1368DR,8664,12118,15469,0.038,551
2019-07-14T09:02:18,42.805,6.029,CST-1368DR,8663,12119,15472,0.037,551
2019-07-14T09:05:19,42.805,6.029,CST-1368DR,8663,12118,15471,0.037,551
2019-07-14T09:08:21,42.805,6.029,CST-1368DR,8663,12118,15471,0.037,551
2019-07-14T09:11:23,42.805,6.029,CST-1368DR,8663,12118,15470,0.038,550
2019-07-14T09:14:25,42.805,6.029,CST-1368DR,8663,12119,15472,0.037,551
2019-07-14T09:17:27,42.805,6.029,CST-1368DR,8663,12118,15471,0.037,551
2019-07-14T09:20:29,42.805,6.029,CST-1368DR,8663,12116,15469,0.038,551
2019-07-14T09:23:30,42.805,6.029,CST-1368DR,8663,12117,15469,0.038,551
2019-07-14T09:26:32,42.805,6.029,CST-1368DR,8663,12118,15471,0.037,551
2019-07-14T09:29:34,42.805,6.029,CST-1368DR,8663,12119,15472,0.037,551
2019-07-14T09:32:36,42.805,6.029,CST-1368DR,8663,12119,15471,0.037,551
2019-07-14T09:35:38,42.805,6.029,CST-1368DR,8663,12117,15469,0.038,551
2019-07-14T09:38:40,42.805,6.029,CST-1368DR,8663,12119,15471,0.037,551
2019-07-14T09:41:41,42.805,6.029,CST-1368DR,8663,12117,15470,0.038,551
2019-07-14T09:44:43,42.805,6.029,CST-1368DR,8663,12117,15469,0.038,551
2019-07-14T09:47:45,42.805,6.029,CST-1368DR,8663,12118,15471,0.037,551
2019-07-14T09:50:47,42.805,6.029,CST-1368DR,8663,12118,15471,0.037,551
2019-07-14T09:53:49,42.805,6.029,CST-1368DR,8663,12117,15470,0.038,551
2019-07-14T09:56:50,42.805,6.029,CST-1368DR,8663,12113,15465,0.039,551
2019-07-14T09:59:52,42.805,6.029,CST-1368DR,8663,12116,15468,0.038,551
2019-07-14T10:02:54,42.805,6.029,CST-1368DR,8663,12116,15468,0.038,551
2019-07-14T10:05:56,42.805,6.029,CST-1368DR,8663,12118,15471,0.037,551
2019-07-14T10:08:58,42.805,6.029,CST-1368DR,8663,12110,15460,0.040,551
2019-07-14T10:12:00,42.805,6.029,CST-1368DR,8663,12117,15470,0.038,551
2019-07-14T10:15:01,42.805,6.029,CST-1368DR,8663,12118,15471,0.037,550
2019-07-14T10:18:03,42.805,6.029,CST-1368DR,8663,12119,15472,0.037,551
2019-07-14T10:21:05,42.805,6.029,CST-1368DR,8663,12117,15469,0.038,550
2019-07-14T10:24:07,42.805,6.029,CST-1368DR,8663,12117,15470,0.038,551
2019-07-14T10:27:09,42.805,6.029,CST-1368DR,8663,12118,15471,0.037,551
2019-07-14T10:30:11,42.805,6.029,CST-1368DR,8663,12118,15470,0.038,551
2019-07-14T10:33:12,42.805,6.029,CST-1368DR,8663,12118,15470,0.038,551
2019-07-14T10:36:14,42.805,6.029,CST-1368DR,8663,12117,15470,0.038,551
2019-07-14T10:39:16,42.805,6.029,CST-1368DR,8663,12118,15471,0.037,551
2019-07-14T10:42:18,42.805,6.029,CST-1368DR,8663,12112,15463,0.039,550
2019-07-14T10:45:20,42.805,6.029,CST-1368DR,8663,12118,15471,0.037,551
2019-07-14T10:48:22,42.805,6.029,CST-1368DR,8663,12117,15470,0.038,551
2019-07-14T10:51:24,42.805,6.029,CST-1368DR,8663,12116,15469,0.038,551
2019-07-14T10:54:25,42.805,6.029,CST-1368DR,8663,12118,15471,0.037,551
2019-07-14T10:57:27,42.805,6.029,CST-1368DR,8662,12112,15465,0.039,551
2019-07-14T11:00:29,42.805,6.029,CST-1368DR,8663,12117,15470,0.038,551
2019-07-14T11:03:31,42.805,6.029,CST-1368DR,8663,12119,15471,0.037,551
2019-07-14T11:06:32,42.805,6.029,CST-1368DR,8662,12116,15470,0.038,551
2019-07-14T11:09:34,42.805,6.029,CST-1368DR,8662,12115,15468,0.038,551
2019-07-14T11:12:36,42.805,6.029,CST-1368DR,8662,12117,15471,0.037,551
2019-07-14T11:15:38,42.805,6.029,CST-1368DR,8662,12116,15470,0.038,550
2019-07-14T11:18:39,42.805,6.029,CST-1368DR,8662,12117,15471,0.037,551
2019-07-14T11:21:41,42.805,6.029,CST-1368DR,8662,12114,15468,0.038,550
2019-07-14T11:24:43,42.805,6.029,CST-1368DR,8662,12117,15471,0.037,551
2019-07-14T11:27:45,42.805,6.029,CST-1368DR,8662,12116,15470,0.038,551
2019-07-14T11:30:46,42.805,6.029,CST-1368DR,8662,12117,15472,0.037,551
2019-07-14T11:33:48,42.805,6.029,CST-1368DR,8662,12115,15469,0.038,551
2019-07-14T11:36:50,42.805,6.029,CST-1368DR,8662,12116,15470,0.038,551
2019-07-14T11:39:52,42.805,6.029,CST-1368DR,8662,12117,15471,0.037,551
2019-07-14T11:42:54,42.805,6.029,CST-1368DR,8662,12118,15472,0.037,551
2019-07-14T11:45:55,42.805,6.029,CST-1368DR,8662,12117,15471,0.037,551
2019-07-14T11:48:57,42.805,6.029,CST-1368DR,8662,12117,15471,0.037,551
2019-07-14T11:51:59,42.805,6.029,CST-1368DR,8662,12117,15471,0.037,551
2019-07-14T11:55:01,42.805,6.029,CST-1368DR,8662,12116,15470,0.038,551
2019-07-14T11:58:02,42.805,6.029,CST-1368DR,8662,12116,15470,0.038,551
2019-07-14T12:01:04,42.805,6.029,CST-1368DR,8662,12117,15472,0.037,551
2019-07-14T12:04:06,42.805,6.029,CST-1368DR,8662,12117,15471,0.037,551
2019-07-14T12:07:08,42.805,6.029,CST-1368DR,8662,12117,15471,0.037,551
2019-07-14T12:10:09,42.805,6.029,CST-1368DR,8662,12115,15468,0.038,551
2019-07-14T12:13:11,42.805,6.029,CST-1368DR,8662,12116,15470,0.038,551
2019-07-14T12:16:13,42.805,6.029,CST-1368DR,8662,12117,15471,0.037,551
2019-07-14T12:19:15,42.805,6.029,CST-1368DR,8662,12112,15465,0.039,551
2019-07-14T12:22:16,42.805,6.029,CST-1368DR,8662,12116,15470,0.038,551
2019-07-14T12:25:18,42.805,6.029,CST-1368DR,8662,12114,15467,0.038,551
2019-07-14T12:28:20,42.805,6.029,CST-1368DR,8662,12115,15469,0.038,551
2019-07-14T12:31:22,42.805,6.029,CST-1368DR,8662,12116,15470,0.038,551
2019-07-14T12:34:24,42.805,6.029,CST-1368DR,8662,12117,15471,0.037,550
2019-07-14T12:37:26,42.805,6.029,CST-1368DR,8662,12117,15471,0.037,551
2019-07-14T12:40:27,42.805,6.029,CST-1368DR,8662,12115,15469,0.038,551
2019-07-14T12:43:29,42.805,6.029,CST-1368DR,8662,12116,15470,0.038,550
2019-07-14T12:46:31,42.805,6.029,CST-1368DR,8662,12111,15463,0.039,551
2019-07-14T12:49:33,42.805,6.029,CST-1368DR,8661,12105,15457,0.041,551
2019-07-14T12:52:35,42.805,6.029,CST-1368DR,8662,12116,15470,0.038,551
2019-07-14T12:55:37,42.805,6.029,CST-1368DR,8662,12112,15465,0.039,551
2019-07-14T12:58:39,42.805,6.029,CST-1368DR,8662,12114,15468,0.038,551
2019-07-14T13:01:40,42.805,6.029,CST-1368DR,8661,12115,15470,0.038,551
2019-07-14T13:04:42,42.805,6.029,CST-1368DR,8661,12115,15470,0.038,551
2019-07-14T13:07:44,42.805,6.029,CST-1368DR,8662,12117,15471,0.037,551
2019-07-14T13:10:46,42.805,6.029,CST-1368DR,8661,12117,15473,0.037,551
2019-07-14T13:13:47,42.805,6.029,CST-1368DR,8661,12117,15473,0.037,551
2019-07-14T13:16:49,42.805,6.029,CST-1368DR,8661,12116,15471,0.037,551
2019-07-14T13:19:51,42.805,6.029,CST-1368DR,8661,12117,15472,0.037,551
2019-07-14T13:22:53,42.805,6.029,CST-1368DR,8661,12116,15472,0.037,551
2019-07-14T13:25:54,42.805,6.029,CST-1368DR,8661,12116,15472,0.037,551
2019-07-14T13:28:56,42.805,6.029,CST-1368DR,8661,12115,15470,0.038,551
2019-07-14T13:31:58,42.805,6.029,CST-1368DR,8661,12116,15471,0.037,551
2019-07-14T13:35:00,42.805,6.029,CST-1368DR,8661,12115,15471,0.037,551
2019-07-14T13:38:01,42.805,6.029,CST-1368DR,8661,12115,15470,0.038,551
2019-07-14T13:41:03,42.805,6.029,CST-1368DR,8661,12114,15469,0.038,551
2019-07-14T13:44:05,42.805,6.029,CST-1368DR,8661,12116,15471,0.037,551
2019-07-14T13:47:07,42.805,6.029,CST-1368DR,8661,12116,15472,0.037,551
2019-07-14T13:50:09,42.805,6.029,CST-1368DR,8661,12114,15469,0.038,551
2019-07-14T13:53:11,42.805,6.029,CST-1368DR,8661,12113,15467,0.038,551
2019-07-14T13:56:12,42.805,6.029,CST-1368DR,8661,12115,15471,0.037,551
2019-07-14T13:59:14,42.805,6.029,CST-1368DR,8661,12114,15468,0.038,551
2019-07-14T14:02:16,42.805,6.029,CST-1368DR,8661,12115,15470,0.038,551
2019-07-14T14:05:18,42.805,6.029,CST-1368DR,8661,12114,15468,0.038,551
2019-07-14T14:08:19,42.805,6.029,CST-1368DR,8661,12114,15469,0.038,551
2019-07-14T14:11:21,42.805,6.029,CST-1368DR,8661,12114,15469,0.038,551
2019-07-14T14:14:23,42.805,6.029,CST-1368DR,8661,12111,15465,0.039,551
2019-07-14T14:17:25,42.805,6.029,CST-1368DR,8661,12114,15469,0.038,551
2019-07-14T14:20:27,42.805,6.029,CST-1368DR,8661,12114,15469,0.038,551
2019-07-14T14:23:28,42.805,6.029,CST-1368DR,8661,12112,15466,0.039,551
2019-07-14T14:26:30,42.805,6.029,CST-1368DR,8661,12114,15469,0.038,550
2019-07-14T14:29:32,42.805,6.029,CST-1368DR,8661,12109,15463,0.039,551
2019-07-14T14:32:34,42.805,6.029,CST-1368DR,8661,12115,15470,0.038,551
2019-07-14T14:35:35,42.805,6.029,CST-1368DR,8661,12114,15469,0.038,551
2019-07-14T14:38:37,42.805,6.029,CST-1368DR,8661,12114,15469,0.038,551
2019-07-14T14:41:39,42.805,6.029,CST-1368DR,8661,12113,15468,0.038,551
2019-07-14T14:44:41,42.805,6.029,CST-1368DR,8661,12114,15468,0.038,551
2019-07-14T14:47:43,42.805,6.029,CST-1368DR,8661,12114,15468,0.038,551
2019-07-14T14:50:44,42.805,6.029,CST-1368DR,8661,12114,15469,0.038,551
2019-07-14T14:53:46,42.805,6.029,CST-1368DR,8661,12113,15468,0.038,551
2019-07-14T14:56:48,42.805,6.029,CST-1368DR,8660,12113,15469,0.038,551
2019-07-14T14:59:50,42.805,6.029,CST-1368DR,8661,12112,15466,0.039,551
2019-07-14T15:02:52,42.805,6.029,CST-1368DR,8661,12115,15470,0.038,550
2019-07-14T15:05:54,42.805,6.029,CST-1368DR,8661,12115,15470,0.038,550
2019-07-14T15:08:55,42.805,6.029,CST-1368DR,8661,12115,15470,0.038,551
2019-07-14T15:11:57,42.805,6.029,CST-1368DR,8661,12115,15470,0.038,551
2019-07-14T15:14:59,42.805,6.029,CST-1368DR,8661,12114,15469,0.038,551
2019-07-14T15:18:01,42.805,6.029,CST-1368DR,8661,12115,15470,0.038,551
2019-07-14T15:21:02,42.805,6.029,CST-1368DR,8661,12112,15466,0.039,551
2019-07-14T15:24:04,42.805,6.029,CST-1368DR,8660,12113,15470,0.038,551
2019-07-14T15:27:06,42.805,6.029,CST-1368DR,8660,12113,15469,0.038,551
2019-07-14T15:30:08,42.805,6.029,CST-1368DR,8660,12115,15471,0.037,551
2019-07-14T15:33:09,42.805,6.029,CST-1368DR,8660,12109,15464,0.039,551
2019-07-14T15:36:11,42.805,6.029,CST-1368DR,8660,12114,15470,0.038,551
2019-07-14T15:39:13,42.805,6.029,CST-1368DR,8660,12114,15470,0.038,551
2019-07-14T15:42:15,42.805,6.029,CST-1368DR,8660,12114,15471,0.037,551
2019-07-14T15:45:17,42.805,6.029,CST-1368DR,8660,12114,15471,0.037,551
2019-07-14T15:48:18,42.805,6.029,CST-1368DR,8660,12115,15472,0.037,551
2019-07-14T15:51:20,42.805,6.029,CST-1368DR,8660,12115,15471,0.037,551
2019-07-14T15:54:22,42.805,6.029,CST-1368DR,8660,12111,15467,0.038,551
2019-07-14T15:57:24,42.805,6.029,CST-1368DR,8660,12113,15470,0.038,551
2019-07-14T16:00:26,42.805,6.029,CST-1368DR,8660,12115,15472,0.037,551
2019-07-14T16:03:28,42.805,6.029,CST-1368DR,8660,12113,15469,0.038,551
2019-07-14T16:06:30,42.805,6.029,CST-1368DR,8660,12107,15461,0.040,551
2019-07-14T16:09:31,42.805,6.029,CST-1368DR,8660,12110,15466,0.039,551
2019-07-14T16:12:33,42.805,6.029,CST-1368DR,8660,12112,15468,0.038,551
2019-07-14T16:15:35,42.805,6.029,CST-1368DR,8660,12113,15469,0.038,551
2019-07-14T16:18:37,42.805,6.029,CST-1368DR,8660,12114,15470,0.038,551
2019-07-14T16:21:39,42.805,6.029,CST-1368DR,8660,12112,15467,0.038,551
2019-07-14T16:24:40,42.805,6.029,CST-1368DR,8660,12112,15468,0.038,551
2019-07-14T16:27:42,42.805,6.029,CST-1368DR,8660,12111,15467,0.038,551
2019-07-14T16:30:44,42.805,6.029,CST-1368DR,8660,12111,15467,0.038,551
2019-07-14T16:33:46,42.805,6.029,CST-1368DR,8660,12115,15471,0.037,551
2019-07-14T16:36:47,42.805,6.029,CST-1368DR,8660,12111,15467,0.038,551